TimeCST,TemperatureF,Dew PointF,Humidity,Sea Level PressureIn,VisibilityMPH,Wind Direction,Wind SpeedMPH,Gust SpeedMPH,PrecipitationIn,Events,Conditions,WindDirDegrees,DateUTC
12:15 AM,24.8,23.7,96,29.56,10.0,West,9.2,-,N/A,,Overcast,260,2014-01-12 06:15:00
12:35 AM,24.8,23.7,96,29.56,10.0,WSW,10.4,-,N/A,,Overcast,250,2014-01-12 06:35:00
12:55 AM,24.8,23.7,96,29.56,10.0,West,11.5,-,N/A,,Overcast,260,2014-01-12 06:55:00
1:15 AM,24.8,23.7,96,29.55,10.0,WSW,6.9,-,N/A,,Overcast,240,2014-01-12 07:15:00
1:35 AM,24.6,23.5,96,29.57,10.0,WSW,9.2,-,N/A,,Overcast,250,2014-01-12 07:35:00
1:55 AM,24.6,23.7,96,29.57,10.0,WSW,10.4,-,N/A,,Overcast,250,2014-01-12 07:55:00
2:15 AM,24.8,23.9,96,29.58,10.0,WSW,11.5,-,N/A,,Overcast,240,2014-01-12 08:15:00
2:35 AM,24.8,23.9,96,29.57,10.0,SW,8.1,-,N/A,,Overcast,230,2014-01-12 08:35:00
2:55 AM,24.6,23.7,96,29.58,10.0,WSW,9.2,-,N/A,,Overcast,240,2014-01-12 08:55:00
3:15 AM,24.4,23.7,97,29.58,7.0,WSW,6.9,-,N/A,,Overcast,240,2014-01-12 09:15:00
3:35 AM,24.3,23.5,97,29.58,7.0,SSW,4.6,-,N/A,,Overcast,210,2014-01-12 09:35:00
3:55 AM,23.9,23.4,98,29.57,7.0,SW,5.8,-,N/A,,Overcast,230,2014-01-12 09:55:00
4:15 AM,23.9,23.4,98,29.57,7.0,Calm,Calm,-,N/A,,Overcast,0,2014-01-12 10:15:00
4:35 AM,23.5,23.0,98,29.57,7.0,SW,8.1,-,N/A,,Overcast,220,2014-01-12 10:35:00
4:55 AM,23.5,23.0,98,29.56,7.0,Calm,Calm,-,N/A,,Overcast,0,2014-01-12 10:55:00
5:15 AM,23.5,23.0,98,29.56,7.0,Calm,Calm,-,N/A,,Overcast,0,2014-01-12 11:15:00
5:35 AM,23.4,22.8,98,29.55,7.0,Calm,Calm,-,N/A,,Overcast,0,2014-01-12 11:35:00
5:55 AM,23.4,22.8,98,29.56,7.0,Calm,Calm,-,N/A,,Overcast,0,2014-01-12 11:55:00
6:15 AM,23.0,22.5,98,29.55,5.0,Calm,Calm,-,N/A,,Overcast,0,2014-01-12 12:15:00
6:35 AM,22.8,22.1,97,29.53,7.0,Calm,Calm,-,N/A,,Overcast,0,2014-01-12 12:35:00
6:55 AM,22.5,22.1,99,29.53,7.0,Calm,Calm,-,N/A,,Overcast,0,2014-01-12 12:55:00
7:15 AM,22.1,21.9,99,29.52,5.0,Calm,Calm,-,N/A,,Overcast,0,2014-01-12 13:15:00
7:35 AM,22.1,21.9,99,29.52,5.0,Calm,Calm,-,N/A,,Overcast,0,2014-01-12 13:35:00
7:55 AM,22.5,21.9,98,29.52,5.0,Calm,Calm,-,N/A,,Overcast,0,2014-01-12 13:55:00
8:15 AM,22.8,22.1,97,29.52,5.0,Calm,Calm,-,N/A,,Overcast,0,2014-01-12 14:15:00
8:35 AM,23.4,22.1,95,29.51,5.0,Calm,Calm,-,N/A,,Overcast,0,2014-01-12 14:35:00
8:55 AM,23.9,22.6,95,29.51,7.0,South,6.9,-,N/A,,Overcast,190,2014-01-12 14:55:00
9:15 AM,24.6,23.0,94,29.51,7.0,South,6.9,-,N/A,,Overcast,180,2014-01-12 15:15:00
9:35 AM,25.3,23.0,91,29.48,7.0,Calm,Calm,-,N/A,,Overcast,0,2014-01-12 15:35:00
9:55 AM,25.7,23.5,92,29.47,7.0,SSE,8.1,-,N/A,,Overcast,160,2014-01-12 15:55:00
10:15 AM,26.6,23.5,88,29.45,10.0,SSE,8.1,-,N/A,,Overcast,160,2014-01-12 16:15:00
10:35 AM,27.1,23.9,88,29.43,10.0,SSE,10.4,-,N/A,,Scattered Clouds,160,2014-01-12 16:35:00
10:55 AM,28.0,24.1,85,29.43,10.0,South,6.9,-,N/A,,Clear,170,2014-01-12 16:55:00
11:15 AM,28.6,24.6,85,29.43,10.0,Calm,Calm,-,N/A,,Clear,0,2014-01-12 17:15:00
11:35 AM,30.0,25.2,82,29.41,10.0,South,9.2,-,N/A,,Scattered Clouds,190,2014-01-12 17:35:00
11:55 AM,31.3,25.5,79,29.39,10.0,South,12.7,-,N/A,,Clear,190,2014-01-12 17:55:00
12:15 PM,31.5,25.7,79,29.38,10.0,SSW,10.4,-,N/A,,Scattered Clouds,200,2014-01-12 18:15:00
12:35 PM,32.5,25.3,75,29.39,10.0,SSW,11.5,16.1,N/A,,Scattered Clouds,210,2014-01-12 18:35:00
12:55 PM,32.9,25.3,74,29.38,10.0,Calm,Calm,-,N/A,,Scattered Clouds,0,2014-01-12 18:55:00
1:15 PM,32.9,25.2,73,29.37,10.0,Calm,Calm,-,0.01,,Mostly Cloudy,0,2014-01-12 19:15:00
1:35 PM,33.8,25.5,72,29.37,10.0,SSW,11.5,20.7,0.01,,Scattered Clouds,210,2014-01-12 19:35:00
1:55 PM,34.0,25.5,71,29.36,10.0,South,10.4,17.3,0.02,,Scattered Clouds,190,2014-01-12 19:55:00
2:15 PM,34.0,25.7,72,29.37,10.0,SSW,6.9,-,N/A,,Clear,200,2014-01-12 20:15:00
2:35 PM,34.0,25.9,72,29.37,10.0,SSW,6.9,-,0.01,,Clear,210,2014-01-12 20:35:00
2:55 PM,34.0,26.1,73,29.38,10.0,SW,8.1,-,0.01,,Clear,220,2014-01-12 20:55:00
3:15 PM,33.8,26.2,74,29.38,10.0,SW,8.1,-,N/A,,Clear,220,2014-01-12 21:15:00
3:35 PM,33.8,26.4,74,29.39,10.0,SW,9.2,-,0.01,,Clear,220,2014-01-12 21:35:00
3:55 PM,33.8,26.4,74,29.39,10.0,SW,8.1,-,0.01,,Scattered Clouds,220,2014-01-12 21:55:00
4:15 PM,33.3,26.6,77,29.39,10.0,SSW,5.8,-,N/A,,Scattered Clouds,210,2014-01-12 22:15:00
4:35 PM,33.1,27.0,78,29.38,10.0,Calm,Calm,-,N/A,,Mostly Cloudy,0,2014-01-12 22:35:00
4:55 PM,33.1,26.8,78,29.40,10.0,Calm,Calm,-,N/A,,Mostly Cloudy,0,2014-01-12 22:55:00
5:15 PM,32.5,26.6,79,29.39,10.0,Calm,Calm,-,N/A,,Scattered Clouds,0,2014-01-12 23:15:00
5:35 PM,32.2,26.6,80,29.38,10.0,Calm,Calm,-,N/A,,Mostly Cloudy,0,2014-01-12 23:35:00
5:55 PM,32.0,26.6,80,29.39,10.0,Calm,Calm,-,N/A,,Scattered Clouds,0,2014-01-12 23:55:00
6:15 PM,32.0,26.6,80,29.39,10.0,Calm,Calm,-,N/A,,Clear,0,2014-01-13 00:15:00
6:35 PM,32.0,26.6,80,29.40,10.0,Calm,Calm,-,N/A,,Clear,0,2014-01-13 00:35:00
6:55 PM,32.0,26.6,80,29.41,10.0,Calm,Calm,-,N/A,,Clear,0,2014-01-13 00:55:00
7:15 PM,32.0,26.6,80,29.40,10.0,Calm,Calm,-,N/A,,Clear,0,2014-01-13 01:15:00
7:35 PM,32.0,26.6,80,29.40,10.0,Calm,Calm,-,N/A,,Clear,0,2014-01-13 01:35:00
7:55 PM,32.0,26.6,80,29.40,10.0,Calm,Calm,-,N/A,,Clear,0,2014-01-13 01:55:00
8:15 PM,32.0,26.2,79,29.41,10.0,Calm,Calm,-,N/A,,Clear,0,2014-01-13 02:15:00
8:35 PM,32.2,26.8,80,29.40,10.0,Calm,Calm,-,N/A,,Scattered Clouds,0,2014-01-13 02:35:00
8:55 PM,32.0,26.6,80,29.40,10.0,Calm,Calm,-,N/A,,Clear,0,2014-01-13 02:55:00
9:15 PM,32.0,27.0,82,29.41,10.0,Calm,Calm,-,N/A,,Clear,0,2014-01-13 03:15:00
9:35 PM,31.6,26.6,82,29.42,10.0,Calm,Calm,-,N/A,,Clear,0,2014-01-13 03:35:00
9:55 PM,32.0,27.1,82,29.43,10.0,Calm,Calm,-,N/A,,Clear,0,2014-01-13 03:55:00
10:15 PM,32.0,27.0,82,29.42,10.0,Calm,Calm,-,N/A,,Clear,0,2014-01-13 04:15:00
10:35 PM,32.0,27.0,82,29.41,10.0,Calm,Calm,-,N/A,,Clear,0,2014-01-13 04:35:00
10:55 PM,30.6,26.2,84,29.41,10.0,Calm,Calm,-,N/A,,Clear,0,2014-01-13 04:55:00
11:15 PM,30.0,28.2,93,29.41,10.0,Calm,Calm,-,N/A,,Clear,0,2014-01-13 05:15:00
11:35 PM,31.1,27.3,86,29.41,10.0,Calm,Calm,-,N/A,,Clear,0,2014-01-13 05:35:00
11:55 PM,31.1,27.0,85,29.41,10.0,Calm,Calm,-,N/A,,Clear,0,2014-01-13 05:55:00